• In Russia
  • List of Countries
  • For 7 days
  • Water Temperature
  • Weather Map
  • Weather Widgets
  • user-avatar
    Login

    Hourly Weather Innsbruck

    Today, 29 January, Wednesday

    Time Temperature Precipitation Wind Pressure Humidity
    00:00 -10°C° 0.2 mm 2 mps 584 mmHg 90%
    01:00 -12°C° 0 mm 3 mps 584 mmHg 84%
    02:00 -12°C° 0.4 mm 3 mps 584 mmHg 86%
    03:00 -10°C° 0.4 mm 2 mps 584 mmHg 88%
    04:00 -10°C° 0.4 mm 2 mps 584 mmHg 89%
    05:00 -10°C° 0.9 mm 2 mps 585 mmHg 91%
    06:00 -9°C° 0.9 mm 1 mps 585 mmHg 92%
    07:00 -8°C° 0.9 mm 1 mps 586 mmHg 94%
    08:00 -8°C° 0.8 mm 1 mps 586 mmHg 92%
    09:00 -8°C° 0.8 mm 1 mps 587 mmHg 90%
    10:00 -8°C° 0.8 mm 2 mps 587 mmHg 88%
    11:00 -8°C° 0.3 mm 2 mps 587 mmHg 88%
    12:00 -7°C° 0.3 mm 1 mps 587 mmHg 87%
    13:00 -6°C° 0.3 mm 1 mps 588 mmHg 87%
    14:00 -6°C° 0.6 mm 1 mps 588 mmHg 89%
    15:00 -6°C° 0.6 mm 1 mps 588 mmHg 90%
    16:00 -6°C° 0.6 mm 1 mps 588 mmHg 92%
    17:00 -7°C° 0.7 mm 1 mps 588 mmHg 93%
    18:00 -7°C° 0.7 mm 1 mps 589 mmHg 94%
    19:00 -7°C° 0.7 mm 1 mps 589 mmHg 95%
    20:00 -7°C° 0.9 mm 1 mps 590 mmHg 95%
    21:00 -7°C° 0.9 mm 1 mps 590 mmHg 95%
    22:00 -7°C° 0.9 mm 1 mps 590 mmHg 95%
    23:00 -7°C° 0.6 mm 1 mps 591 mmHg 95%

    Tomorrow, 30 January, Thursday

    Time Temperature Precipitation Wind Pressure Humidity
    00:00 -8°C° 0.6 mm 2 mps 591 mmHg 95%
    01:00 -8°C° 0.6 mm 2 mps 592 mmHg 94%
    02:00 -9°C° 0.1 mm 2 mps 591 mmHg 91%
    03:00 -9°C° 0.1 mm 2 mps 591 mmHg 88%
    04:00 -10°C° 0.1 mm 2 mps 590 mmHg 85%
    05:00 -10°C° 0 mm 2 mps 590 mmHg 80%
    06:00 -10°C° 0 mm 2 mps 590 mmHg 74%
    07:00 -10°C° 0 mm 2 mps 590 mmHg 69%
    08:00 -8°C° 0 mm 2 mps 591 mmHg 68%
    09:00 -6°C° 0 mm 2 mps 592 mmHg 68%
    10:00 -3°C° 0 mm 1 mps 593 mmHg 68%
    11:00 -2°C° 0 mm 1 mps 593 mmHg 71%
    12:00 -1°C° 0 mm 1 mps 593 mmHg 75%
    13:00 0°C° 0 mm 1 mps 593 mmHg 78%
    14:00 0°C° 0 mm 1 mps 592 mmHg 78%
    15:00 0°C° 0 mm 1 mps 592 mmHg 78%
    16:00 -1°C° 0 mm 1 mps 591 mmHg 77%
    17:00 -1°C° 0 mm 1 mps 591 mmHg 73%
    18:00 -4°C° 0 mm 2 mps 591 mmHg 69%
    19:00 -5°C° 0 mm 2 mps 591 mmHg 65%
    20:00 -4°C° 0.1 mm 2 mps 591 mmHg 68%
    21:00 -4°C° 0.1 mm 2 mps 591 mmHg 70%
    22:00 -4°C° 0.1 mm 2 mps 591 mmHg 73%
    23:00 -4°C° 0.3 mm 2 mps 592 mmHg 78%

    Day after tomorrow, 31 January, Friday

    Time Temperature Precipitation Wind Pressure Humidity
    00:00 -4°C° 0.3 mm 2 mps 592 mmHg 83%
    01:00 -4°C° 0.3 mm 2 mps 592 mmHg 88%
    02:00 -4°C° 0.4 mm 2 mps 592 mmHg 90%
    03:00 -3°C° 0.4 mm 2 mps 592 mmHg 92%
    04:00 -1°C° 0.4 mm 1 mps 592 mmHg 94%
    05:00 -3°C° 0.1 mm 2 mps 592 mmHg 95%
    06:00 -3°C° 0.1 mm 2 mps 592 mmHg 95%
    07:00 -2°C° 0.1 mm 2 mps 592 mmHg 96%
    08:00 -2°C° 0 mm 2 mps 593 mmHg 97%
    09:00 -1°C° 0 mm 2 mps 593 mmHg 97%
    10:00 -1°C° 0 mm 2 mps 593 mmHg 97%
    11:00 +1°C° 0 mm 1 mps 594 mmHg 98%
    12:00 +2°C° 0 mm 1 mps 594 mmHg 98%
    13:00 +2°C° 0 mm 1 mps 594 mmHg 98%
    14:00 +2°C° 0 mm 1 mps 594 mmHg 98%
    15:00 +1°C° 0 mm 1 mps 594 mmHg 98%
    16:00 +1°C° 0 mm 1 mps 593 mmHg 98%
    17:00 0°C° 0 mm 1 mps 593 mmHg 95%
    18:00 -1°C° 0 mm 1 mps 593 mmHg 92%
    19:00 -1°C° 0 mm 1 mps 593 mmHg 89%
    20:00 -2°C° 0 mm 1 mps 593 mmHg 88%
    21:00 -2°C° 0 mm 1 mps 593 mmHg 87%
    22:00 -2°C° 0 mm 1 mps 592 mmHg 86%
    23:00 -3°C° 0 mm 1 mps 592 mmHg 84%

    1 February, Saturday

    Time Temperature Precipitation Wind Pressure Humidity
    00:00 -3°C° 0 mm 1 mps 592 mmHg 82%
    01:00 -3°C° 0 mm 1 mps 592 mmHg 80%
    02:00 -3°C° 0 mm 1 mps 592 mmHg 79%
    03:00 -3°C° 0 mm 1 mps 592 mmHg 77%
    04:00 -3°C° 0 mm 1 mps 591 mmHg 76%
    05:00 -3°C° 0 mm 1 mps 591 mmHg 76%
    06:00 -3°C° 0 mm 1 mps 591 mmHg 75%
    07:00 -3°C° 0 mm 1 mps 591 mmHg 74%
    08:00 -2°C° 0 mm 1 mps 592 mmHg 76%
    09:00 -1°C° 0 mm 1 mps 592 mmHg 78%
    10:00 0°C° 0 mm 1 mps 593 mmHg 81%
    11:00 +1°C° 0 mm 1 mps 592 mmHg 85%
    12:00 +1°C° 0 mm 1 mps 592 mmHg 89%
    13:00 +2°C° 0 mm 1 mps 592 mmHg 94%
    14:00 +1°C° 0 mm 1 mps 592 mmHg 94%
    15:00 +1°C° 0 mm 1 mps 592 mmHg 93%
    16:00 +1°C° 0 mm 1 mps 591 mmHg 93%
    17:00 0°C° 0.1 mm 1 mps 591 mmHg 92%
    18:00 -1°C° 0.1 mm 1 mps 591 mmHg 91%
    19:00 -2°C° 0.1 mm 1 mps 590 mmHg 90%
    20:00 -4°C° 1.3 mm 2 mps 591 mmHg 92%
    21:00 -4°C° 1.3 mm 2 mps 592 mmHg 93%
    22:00 -5°C° 1.3 mm 3 mps 592 mmHg 95%
    23:00 -5°C° 0.2 mm 2 mps 592 mmHg 95%

    2 February, Sunday

    Time Temperature Precipitation Wind Pressure Humidity
    00:00 -6°C° 0.2 mm 2 mps 592 mmHg 95%
    01:00 -7°C° 0.2 mm 2 mps 592 mmHg 95%
    02:00 -7°C° 0.3 mm 2 mps 592 mmHg 95%
    03:00 -7°C° 0.3 mm 2 mps 593 mmHg 95%
    04:00 -7°C° 0.3 mm 2 mps 593 mmHg 95%
    05:00 -8°C° 0.1 mm 2 mps 593 mmHg 94%
    06:00 -8°C° 0.1 mm 2 mps 593 mmHg 92%
    07:00 -9°C° 0.1 mm 2 mps 593 mmHg 91%
    08:00 -8°C° 0 mm 2 mps 594 mmHg 85%
    09:00 -7°C° 0 mm 2 mps 595 mmHg 80%
    10:00 -6°C° 0 mm 2 mps 596 mmHg 75%
    11:00 -2°C° 0 mm 1 mps 596 mmHg 71%
    12:00 -1°C° 0 mm 1 mps 596 mmHg 68%
    13:00 0°C° 0 mm 1 mps 597 mmHg 64%
    14:00 0°C° 0 mm 1 mps 597 mmHg 68%
    15:00 0°C° 0 mm 1 mps 597 mmHg 71%
    16:00 0°C° 0 mm 1 mps 597 mmHg 75%
    17:00 0°C° 0.7 mm 1 mps 597 mmHg 81%
    18:00 -3°C° 0.7 mm 2 mps 597 mmHg 86%
    19:00 -3°C° 0.7 mm 2 mps 597 mmHg 92%
    20:00 -3°C° 1.2 mm 2 mps 597 mmHg 93%
    21:00 -2°C° 1.2 mm 2 mps 597 mmHg 95%
    22:00 -2°C° 1.2 mm 2 mps 598 mmHg 97%
    23:00 -2°C° 0.5 mm 2 mps 598 mmHg 96%

    3 February, Monday

    Time Temperature Precipitation Wind Pressure Humidity
    00:00 -1°C° 0.5 mm 2 mps 598 mmHg 96%
    01:00 -1°C° 0.5 mm 2 mps 598 mmHg 96%
    02:00 -1°C° 0.2 mm 2 mps 598 mmHg 96%
    03:00 -1°C° 0.2 mm 2 mps 598 mmHg 96%
    04:00 -1°C° 0.2 mm 2 mps 598 mmHg 96%
    05:00 -1°C° 0 mm 2 mps 598 mmHg 94%
    06:00 -1°C° 0 mm 2 mps 597 mmHg 92%
    07:00 -2°C° 0 mm 2 mps 597 mmHg 90%
    08:00 -1°C° 0 mm 2 mps 598 mmHg 90%
    09:00 +1°C° 0 mm 2 mps 598 mmHg 90%
    10:00 +1°C° 0 mm 2 mps 598 mmHg 91%
    11:00 +3°C° 0 mm 1 mps 598 mmHg 92%
    12:00 +3°C° 0 mm 1 mps 598 mmHg 94%
    13:00 +4°C° 0 mm 1 mps 599 mmHg 95%
    14:00 +4°C° 0 mm 1 mps 598 mmHg 90%
    15:00 +3°C° 0 mm 1 mps 598 mmHg 85%
    16:00 +3°C° 0 mm 1 mps 597 mmHg 80%
    17:00 +1°C° 0 mm 2 mps 597 mmHg 74%
    18:00 +1°C° 0 mm 2 mps 597 mmHg 67%
    19:00 -1°C° 0 mm 2 mps 597 mmHg 61%
    20:00 -1°C° 0 mm 2 mps 596 mmHg 59%
    21:00 -1°C° 0 mm 2 mps 596 mmHg 58%
    22:00 -1°C° 0 mm 2 mps 596 mmHg 57%
    23:00 -1°C° 0 mm 2 mps 596 mmHg 57%
    Show more